Location: Meylan - GAD - Ancien Couvent des Capucins
(45.2229°N, 5.7790°E)
Time: 02:27:11
(UTC+02:00)

ISS - Visible Passes

Search period start: 26 October 2021 00:00
Search period end: 04 November 2021 23:00
Orbit: 417 x 423 km, 51.6° (Epoch: 25 October)

Date Brightness Start Highest point End Pass type
(mag) Time Alt. Az. Time Alt. Az. Time Alt. Az.
26 Oct -1.2 05:32:54 21° E 05:32:54 21° E 05:34:24 10° ENE visible
26 Oct -3.4 07:05:54 18° W 07:08:07 49° NNW 07:11:24 10° NE visible
27 Oct -3.8 06:20:50 69° NNW 06:20:50 69° NNW 06:24:11 10° ENE visible
28 Oct -1.2 05:35:41 21° ENE 05:35:41 21° ENE 05:36:56 10° ENE visible
28 Oct -2.6 07:08:40 17° WNW 07:10:38 31° NNW 07:13:42 10° NE visible
29 Oct -2.8 06:23:27 37° N 06:23:27 37° N 06:26:26 10° NE visible
30 Oct -1.0 05:38:11 18° NE 05:38:11 18° NE 05:39:11 10° NE visible
30 Oct -2.3 07:11:10 15° NW 07:13:14 26° N 07:16:09 10° ENE visible
31 Oct -2.3 05:25:51 27° N 05:25:51 27° N 05:28:46 10° NE visible
01 Nov -0.9 04:40:31 16° NE 04:40:31 16° NE 04:41:26 10° NE visible
01 Nov -2.3 06:13:30 14° NW 06:15:49 28° N 06:18:48 10° ENE visible
02 Nov -2.3 05:28:10 26° N 05:28:23 26° N 05:31:18 10° ENE visible
03 Nov -0.9 04:42:49 16° NE 04:42:49 16° NE 04:43:51 10° ENE visible
03 Nov -2.8 06:15:48 15° NW 06:18:19 40° NNE 06:21:31 10° E visible
04 Nov -2.6 05:30:29 31° N 05:30:55 33° NNE 05:34:00 10° E visible
